User: anonymous   Login
Location: Caltech
(34.1382°N, 118.1253°W)
Time: 23:45:14
(UTC-07:00)
Language:

HO-68 - Orbit

View from above orbital plane
View from above orbital plane
View from above satellite
View from above satellite

Ground track
Ground track

The orbit data is extracted from the following two-line orbital elements,

1 36122U 09072B   15242.80499846 -.00000060  00000-0 -43517-4 0  9996
2 36122 100.1887 284.9278 0006944 311.2429 048.8081 13.16328818274278
Epoch (UTC): 30 August 2015 19:19:11
Eccentricity: 0.0006944
inclination: 100.1887°
perigee height: 1193 km
apogee height: 1204 km
right ascension of ascending node: 284.9278°
argument of perigee: 311.2429°
revolutions per day: 13.16328818
mean anomaly at epoch: 48.8081°
orbit number at epoch: 27427

The dashed part of the orbit path shows where the satellite is in the earth's shadow,  

DLR